Regional Weather Roundup
Issued by NWS

Home | Current Version | Previous Version | Graphics & Text | Print | Product List | Glossary On
Versions: 1 2 3 4 5 6 7 8 9 10 11 12 13 14 15 16 17 18 19 20 21 22 23 24 25 26 27 28 29 30 31 32 33 34 35 36 37 38 39 40 41 42 43 44 45 46 47 48
000
ASUS45 KBOU 230007
RWRCO

WEATHER ROUNDUP FOR COLORADO
NATIONAL WEATHER SERVICE DENVER/BOULDER CO
600 PM MDT TUE JUL 22 2014

NOTE: "FAIR" INDICATES FEW OR NO CLOUDS BELOW 12000 FEET WITH NO
SIGNIFICANT WEATHER AND/OR OBSTRUCTIONS TO VISIBILITY.

COZ001>005-013-030-031-230100-
...NORTHWEST COLORADO...

CITY           SKY/WX    TMP DP  RH WIND       PRES   REMARKS
CRAIG          SUNNY     94  17   6 E5        30.30F
HAYDEN         SUNNY     90  27  10 CALM      30.34F
MEEKER         SUNNY     92  22   8 S5        30.30F
MOUNT WERNER   NOT AVBL
STEAMBOAT SPGS SUNNY     89  26  10 CALM      30.38S
WALDEN         SUNNY     81  27  13 SW6       30.49F
$$

COZ006>008-011-230100-
...WEST CENTRAL VALLEYS...

CITY           SKY/WX    TMP DP  RH WIND       PRES   REMARKS
GRAND JUNCTION SUNNY     97  25   7 W10       30.14F
MONTROSE       SUNNY     97  25   7 NW10      30.23F
EAGLE          MOSUNNY   93  27   9 VRB7      30.32F
RIFLE          SUNNY     97   9   4 NW7       30.20F
DELTA          SUNNY    102  19   5 NW3       30.17F
NUCLA          SUNNY     97  21   6 NW3G18    30.25F
$$

COZ017>023-064>068-230100-
...SOUTHWEST COLORADO...

CITY           SKY/WX    TMP DP  RH WIND       PRES   REMARKS
DURANGO        MOSUNNY   94  23   8 VRB3      30.28F
CORTEZ         SUNNY     97  28   8 SW13      30.21F
PAGOSA SPRINGS MOSUNNY   89  20   8 SE9G22    30.41S
TELLURIDE      PTSUNNY   79  28  15 E7        30.55S
WOLF CREEK PAS NOT AVBL
$$

COZ009-010-012-014-032>034-037-058>063-230100-
...CENTRAL COLORADO...

CITY           SKY/WX    TMP DP  RH WIND       PRES   REMARKS
ASPEN          MOSUNNY   88  21   8 W6G17     30.41F
BUENA VISTA    MOSUNNY   85  18   8 SE6       30.44S
COPPER MTN     MOSUNNY   68  14  12 W13       30.85S
BERTHOUD PASS  FAIR      54  39  58 E23       30.92S
COTTONWOOD PAS PTSUNNY   79   3   5 CALM      30.63S
GUNNISON       MOSUNNY   88  25  10 N7        30.42F
KREMMLING      SUNNY     90  12   5 NW8       30.41F
LEADVILLE      MOSUNNY   76  19  11 S10       30.62S
MONARCH PASS   MOSUNNY   66  23  19 NE9       30.93F
SALIDA         MOSUNNY  N/A N/A N/A SE13G26   30.47S
SUNLIGHT       SUNNY     73  23  15 CALM      30.74F
WILKERSON PASS MOSUNNY   64  32  29 MISG      30.83S
$$

COZ069>075-230100-
...SAN LUIS VALLEY/SANGRE DE CRISTO MOUNTAINS...

CITY           SKY/WX    TMP DP  RH WIND       PRES   REMARKS
ALAMOSA        MOSUNNY   86  42  21 E15G22    30.41S
LA VETA PASS   SUNNY     68  39  34 E15G23    30.69F THUNDER
SAGUACHE       MOSUNNY   86  30  13 S5        30.43F
$$

COZ035-036-038>040-230100-
...NORTHERN COLORADO FRONT RANGE...

CITY           SKY/WX    TMP DP  RH WIND       PRES   REMARKS
DENVER INTL AP MOSUNNY   94  41  16 SE15      30.27S
DMNS CITY PARK   N/A     93  45  19 NE1G8     30.26F
AURORA         PTSUNNY   87  51  28 E7        30.30F
FRONT RANGE AP MOSUNNY   93  43  17 S8        30.29F
ERIE MUNI ARPT MOSUNNY   93  47  20 CALM      30.24F
BOULDER MUN AP MOSUNNY   91  46  21 E3        30.26F
CENTENNIAL     PTSUNNY   89  40  17 SW7       30.31F
BROOMFIELD     MOSUNNY   93  46  20 SW9       30.31S
FORT COLLINS   SUNNY     93  55  27 NE5       30.22F
LONGMONT       SUNNY     95  49  20 W5        30.26F
$$

COZ041-046-047-076>085-087-088-230100-
...PIKES PEAK/PALMER DIVIDE AND SOUTHERN FOOTHILLS...

CITY           SKY/WX    TMP DP  RH WIND       PRES   REMARKS
COLO. SPRINGS  PTSUNNY   86  45  23 S8        30.36S
A. F. ACADEMY  PTSUNNY   82  51  34 SE5       30.38S
ELLICOTT       PTSUNNY   89  41  18 SE10      30.34S
FALCON         PTSUNNY   81  51  34 CALM      30.43S
FORT CARSON    MOSUNNY   90  46  22 E2        30.32F
LIMON          MOSUNNY   92  47  21 E13       30.28S
MONUMENT HILL  PTSUNNY   81  41  24 S6        30.43S
TRINIDAD       SUNNY     93  37  14 NE17      30.29F
$$

COZ042>045-048>051-090-091-230100-
...NORTHEAST COLORADO...

CITY           SKY/WX    TMP DP  RH WIND       PRES   REMARKS
GREELEY ARPT   SUNNY     91  54  27 SE9       30.23S
AKRON          SUNNY     90  57  32 E16       30.24F
BURLINGTON     SUNNY     93  56  28 E12G17    30.20S
WRAY             N/A     95  56  26 E12       30.19S
STERLING       SUNNY     93  63  36 SE7G17    30.19S
HOLYOKE        SUNNY     95  59  30 E12       30.20F
FORT MORGAN    SUNNY     93  52  24 E12G18    30.23F
$$

COZ086-089-092>099-230100-
...SOUTHEAST COLORADO...

CITY           SKY/WX    TMP DP  RH WIND       PRES   REMARKS
PUEBLO         SUNNY     94  49  21 SE12      30.20F
LA JUNTA       SUNNY     96  52  22 SE10      30.17S
LAMAR          SUNNY     98  52  21 E10       30.11F
SPRINGFIELD    NOT AVBL
$$


USA.gov is the U.S. government's official web portal to all federal, state and local government web resources and services.